This is the latest recevied weather packets stored in our database for station/object EA1FWM-12. If no packets are shown the sender has not sent any weather packets the latest 10 day(s).
| Time | Temp. | Humidity | Pressure | Rain* | Wind** | Luminosity | Snow |
|---|---|---|---|---|---|---|---|
| 1787485693 | 23.33° C | 67% | 1018.3 hPa | - | - | - | - |
| 1787485367 | 23.33° C | 67% | 1018.3 hPa | - | - | - | - |
| 1787484468 | 23.33° C | 67% | 1018.4 hPa | - | - | - | - |
| 1787483568 | 22.78° C | 70% | 1018.5 hPa | - | - | - | - |
| 1787482668 | 21.67° C | 72% | 1018.5 hPa | - | - | - | - |
| 1787481769 | 20.56° C | 73% | 1018.5 hPa | - | - | - | - |
| 1787480869 | 20° C | 74% | 1018.7 hPa | - | - | - | - |
| 1787479969 | 18.89° C | 75% | 1019 hPa | - | - | - | - |
| 1787479069 | 18.33° C | 76% | 1019.2 hPa | - | - | - | - |
| 1787478170 | 17.78° C | 76% | 1019 hPa | - | - | - | - |
| 1787477270 | 17.78° C | 76% | 1019.1 hPa | - | - | - | - |
| 1787476371 | 17.78° C | 77% | 1019 hPa | - | - | - | - |
| 1787475472 | 17.22° C | 78% | 1018.9 hPa | - | - | - | - |
| 1787473672 | 16.11° C | 79% | 1018.5 hPa | - | - | - | - |
| 1787472773 | 15.56° C | 79% | 1018.2 hPa | - | - | - | - |
| 1787471873 | 15.56° C | 79% | 1018.5 hPa | - | - | - | - |
| 1787470973 | 15° C | 79% | 1018.3 hPa | - | - | - | - |
| 1787470073 | 15° C | 79% | 1018.3 hPa | - | - | - | - |
| 1787469173 | 14.44° C | 79% | 1018.3 hPa | - | - | - | - |
| 1787468273 | 14.44° C | 80% | 1018 hPa | - | - | - | - |
| 1787467374 | 13.89° C | 80% | 1018.2 hPa | - | - | - | - |
| 1787466474 | 13.89° C | 79% | 1018.1 hPa | - | - | - | - |
| 1787465574 | 13.89° C | 79% | 1018 hPa | - | - | - | - |
| 1787464675 | 13.33° C | 79% | 1017.7 hPa | - | - | - | - |
| 1787463775 | 13.33° C | 79% | 1017.4 hPa | - | - | - | - |
* Rain since midnight (hover to see other rain measurements)
** Current wind speed in m/s (hover to see current wind gust speed)